Theta_e
338 339 338 338 338 338 338 338 339 340 341 342 343 344 344 343 345 346 347 346 345 345 345 344 345 344 343 343 344 343 342 342 346 346 336 328 326 323 323 323 321 321 320 320 320 320 321 322 322 323 324 325 327 329 332 334 337 338 339 339 340 340 341 341 342 342 343 344 344 343 342 341 340 339 339 339 338 340 343 343 342 342 342 342 342
340 340 340 338 338 338 339 340 341 342 343 343 343 342 340 342 345 345 346 346 345 345 345 344 344 345 345 344 345 345 343 342 344 346 342 332 327 322 322 322 320 320 320 320 320 321 322 323 324 325 327 330 333 336 337 338 338 338 339 339 340 340 341 341 342 343 343 342 340 336 333 331 330 329 329 328 328 333 339 341 338 337 335 332 330
340 341 340 338 339 341 341 341 343 343 342 343 342 341 340 343 346 346 345 345 345 345 345 344 343 344 346 345 346 345 345 346 345 348 346 336 328 324 321 320 321 320 320 321 321 322 323 324 327 330 333 336 338 339 339 339 339 339 339 338 339 340 341 342 343 344 342 338 334 331 328 327 326 325 325 325 324 327 331 331 328 326 324 323 323
340 342 341 339 339 340 339 340 344 343 342 344 343 343 344 345 347 347 346 345 345 345 345 344 344 344 344 345 345 345 346 347 345 346 346 339 331 328 323 320 320 320 321 322 323 324 326 329 332 335 337 338 339 340 339 339 338 337 337 338 339 340 342 343 344 343 339 335 332 331 331 330 329 328 327 327 325 324 324 323 323 323 323 324 325
339 341 343 341 340 341 341 342 344 343 342 344 345 344 346 347 348 348 347 346 345 346 345 343 345 345 344 344 345 344 344 345 343 342 347 347 340 334 328 322 321 325 325 324 326 329 331 335 336 337 339 339 340 339 338 337 335 336 336 338 340 341 343 343 342 341 338 335 334 334 335 335 334 332 331 330 329 328 328 328 327 327 329 331 331
341 341 343 342 341 341 342 343 343 342 342 346 348 346 346 347 348 349 348 348 346 346 346 343 345 347 345 345 344 343 344 344 343 344 348 349 344 342 336 329 331 339 340 333 331 334 334 335 336 337 339 339 339 338 336 336 336 336 338 339 340 340 339 339 339 338 337 335 335 336 336 336 336 336 335 335 336 336 336 336 334 335 336 337 337
341 340 342 341 339 339 341 341 338 339 343 347 348 346 346 348 348 349 349 348 347 347 347 345 344 346 345 344 344 344 344 343 342 343 345 345 346 348 345 341 340 343 348 344 335 336 340 340 337 333 335 336 337 336 334 335 336 337 338 337 336 335 334 334 334 334 334 334 334 334 334 334 335 336 337 338 339 339 338 337 336 336 337 337 338
343 343 345 344 343 344 345 344 341 344 347 348 348 347 348 349 349 349 348 347 348 347 347 346 344 344 345 342 344 344 342 343 343 341 342 343 345 347 346 348 347 344 348 347 340 339 346 351 345 333 331 331 331 333 333 334 336 335 334 333 332 332 332 333 333 332 331 331 331 332 332 332 332 333 334 335 336 335 334 333 332 332 333 334 335
347 348 348 347 347 348 348 347 347 349 350 348 348 348 348 349 348 348 348 347 349 349 348 347 345 345 344 341 342 343 343 345 344 342 342 343 344 343 341 345 348 349 350 348 344 343 346 354 352 342 338 335 331 330 332 333 333 332 332 332 333 334 335 336 335 334 333 333 333 333 333 333 333 332 332 332 332 332 331 331 331 332 332 332 334
348 349 349 348 348 348 347 345 346 347 348 349 349 348 347 347 348 349 349 348 349 349 348 347 346 344 343 341 341 342 344 345 341 340 343 345 345 342 342 343 345 348 349 347 346 344 344 351 353 348 347 347 339 329 329 331 332 333 335 336 338 338 339 339 339 339 338 337 336 335 335 335 335 333 332 332 331 332 332 334 335 335 336 335 336
346 349 350 348 347 347 345 343 344 346 347 348 348 349 346 345 347 348 349 348 347 347 347 346 344 342 340 341 343 341 341 344 343 342 343 345 344 342 344 346 345 346 346 346 346 343 346 351 350 348 351 352 346 333 328 331 335 337 338 339 339 340 340 342 343 343 342 341 340 339 338 338 337 335 334 333 333 333 334 336 337 338 338 338 339
344 347 348 346 345 344 343 344 345 345 346 345 345 347 346 345 346 346 347 347 346 346 345 344 342 341 340 340 343 342 342 345 345 343 341 343 345 343 343 344 346 347 345 345 346 343 349 352 347 347 350 350 345 336 329 331 335 337 338 338 338 338 339 342 344 344 344 344 342 340 340 340 340 338 337 335 334 334 334 336 338 340 340 340 340
343 345 346 345 343 343 342 345 346 345 346 345 343 344 345 347 348 347 348 347 346 345 343 341 340 341 341 340 341 343 344 344 343 342 341 343 346 344 342 343 345 346 346 346 345 343 345 346 346 349 352 349 343 338 332 331 333 334 334 335 335 336 337 339 342 343 344 345 343 341 339 339 339 339 339 338 336 335 334 335 338 340 341 341 342
343 345 346 344 342 342 342 344 344 344 344 344 344 344 344 347 349 348 347 347 346 344 341 341 342 342 342 342 342 343 345 345 343 343 342 342 344 344 343 344 342 342 345 346 345 344 340 339 343 347 351 351 347 343 337 333 333 332 331 331 331 333 334 336 339 341 343 344 343 341 338 337 336 337 338 338 338 336 335 334 337 340 341 342 342
344 344 344 343 342 342 341 342 342 343 343 342 343 344 343 347 349 348 346 346 345 343 344 346 344 342 342 343 343 343 344 345 344 342 342 342 341 343 344 344 342 341 344 345 344 342 338 339 341 340 344 349 344 339 337 335 336 335 334 333 332 332 331 333 335 338 340 341 342 342 340 336 333 332 332 334 335 335 334 333 335 338 339 340 340
344 346 344 343 343 342 341 341 341 341 342 342 344 345 344 346 348 349 347 345 346 345 347 348 343 342 344 343 342 342 342 342 342 341 341 341 341 342 342 342 344 344 343 344 344 339 336 340 341 336 339 342 338 336 336 335 337 339 339 338 337 334 333 334 335 337 338 339 341 342 342 340 335 330 328 329 331 331 331 331 332 335 337 338 338
346 347 345 342 343 343 341 340 340 340 342 345 348 347 345 346 349 350 347 347 348 346 348 347 344 344 345 344 344 343 343 341 340 341 340 341 340 340 342 341 343 344 342 342 342 339 338 341 341 337 336 338 338 340 340 337 338 341 342 343 343 341 339 339 339 340 339 340 340 340 340 341 339 334 327 326 328 328 328 329 330 332 333 335 335
347 348 345 343 343 342 341 340 340 342 343 346 349 348 346 348 350 350 348 348 348 346 346 347 346 346 345 347 348 345 345 342 341 342 341 340 339 339 342 341 340 341 340 341 341 340 340 341 341 338 336 338 338 340 344 343 343 343 342 345 347 346 345 344 342 343 343 342 341 341 340 339 339 338 332 328 328 328 327 328 329 330 331 333 334
348 348 346 344 344 343 343 342 341 342 344 346 348 349 348 347 347 348 348 348 348 346 346 347 346 347 346 346 347 347 346 344 343 342 340 340 340 339 341 341 341 342 342 342 342 341 341 341 342 339 338 341 340 340 342 341 342 343 342 345 347 347 347 346 344 345 344 344 343 342 341 339 337 338 336 333 332 331 331 331 331 331 332 333 333
348 349 346 344 344 343 343 344 344 343 344 348 349 349 347 345 345 346 347 347 348 347 346 347 347 347 348 346 346 348 347 346 346 343 341 341 340 340 340 341 342 342 342 342 341 340 341 341 341 341 341 343 341 341 340 339 340 342 342 345 347 348 348 346 345 345 346 345 343 342 341 339 337 336 336 336 335 335 336 337 337 337 336 335 334
348 346 345 345 344 344 345 347 349 346 345 349 350 349 345 345 346 344 344 347 349 348 347 349 349 347 348 348 348 347 346 347 347 345 344 343 343 342 341 341 341 341 342 342 341 341 340 340 341 342 343 342 342 342 341 339 339 340 341 344 348 350 349 347 345 345 346 346 345 343 341 340 338 336 335 335 336 338 338 341 342 343 343 341 338
346 344 344 344 343 344 346 347 349 348 347 348 349 348 345 345 347 344 344 345 346 349 349 349 350 348 347 348 348 348 348 348 347 346 346 346 346 343 341 342 341 340 342 342 342 342 342 342 343 344 343 342 343 343 342 340 339 340 342 344 348 350 350 348 346 344 344 344 345 345 342 340 339 337 335 333 334 338 340 342 344 345 346 344 342
346 345 346 347 344 346 348 347 349 350 349 348 349 350 349 349 348 345 347 348 346 348 350 350 350 349 348 347 347 348 349 349 348 347 346 347 347 343 340 343 342 341 343 342 340 341 343 343 343 344 343 342 342 341 340 341 340 339 340 342 346 350 349 347 346 344 343 344 345 346 343 340 338 337 335 333 332 334 337 339 342 344 345 345 343
347 346 347 349 346 347 350 349 349 350 349 348 351 352 352 353 351 346 346 348 346 346 349 352 351 350 350 348 346 347 347 348 347 346 346 345 346 345 343 343 343 343 344 343 342 341 343 343 343 343 343 343 342 341 342 342 340 338 339 341 344 348 347 347 348 346 344 346 346 345 344 339 336 334 334 333 331 331 332 333 335 338 340 342 342
349 347 348 350 347 346 349 349 349 351 350 348 351 353 354 353 350 348 348 346 345 344 346 351 352 351 352 349 348 348 347 347 346 346 347 345 346 347 347 346 345 344 345 344 343 342 343 344 344 343 343 343 344 344 344 343 340 339 342 346 347 346 343 343 348 345 342 344 345 345 345 340 335 332 332 332 330 329 329 329 330 331 334 336 337
350 349 350 351 349 346 346 348 348 348 347 346 347 350 352 351 347 349 353 350 345 343 346 351 352 351 352 350 349 349 348 348 346 345 347 348 348 349 350 350 347 345 346 346 344 342 343 344 344 343 344 344 344 344 344 343 343 344 346 348 349 348 344 340 342 342 341 343 346 346 345 343 338 332 330 330 329 328 328 329 329 330 331 331 332
351 351 351 352 353 349 344 344 344 343 343 342 342 343 344 347 346 349 354 350 344 343 345 351 354 352 351 349 348 349 349 348 348 348 349 349 349 349 351 350 346 345 347 347 345 345 345 343 342 343 345 345 345 345 344 344 346 347 347 348 348 349 347 340 338 340 342 345 348 347 345 344 342 335 330 329 329 329 329 329 329 329 329 329 329
352 353 352 351 353 351 345 343 342 341 342 340 341 342 340 342 345 346 351 350 345 344 343 347 352 353 351 349 347 347 348 348 349 349 350 350 351 351 351 350 349 348 348 348 348 347 346 344 345 345 345 345 345 345 343 344 347 347 346 347 347 348 345 338 337 341 344 347 348 347 345 345 344 339 333 330 329 329 329 329 329 328 328 328 328
352 353 352 348 349 349 347 347 344 340 342 340 339 342 340 341 343 343 349 354 351 345 342 344 351 353 351 350 349 348 348 347 346 347 348 348 349 349 350 351 351 351 351 352 351 348 346 346 346 346 346 346 345 344 343 343 345 344 343 344 347 348 344 339 341 344 346 348 347 346 345 345 345 342 335 330 329 329 329 328 328 328 328 328 328
352 353 352 346 344 344 346 351 349 340 341 342 338 340 340 341 344 342 345 351 349 345 343 345 351 354 352 352 352 350 349 349 348 347 347 348 348 348 350 350 351 351 352 352 349 346 346 344 344 346 346 345 343 343 345 344 343 342 342 344 346 345 341 341 345 346 345 346 345 345 345 345 344 342 339 334 330 330 330 328 327 327 327 327 327
353 353 352 346 342 340 342 350 350 342 341 344 341 339 339 341 345 346 346 346 344 343 342 344 350 353 353 354 353 351 351 350 349 348 348 348 348 348 349 348 349 350 352 350 347 345 345 343 342 342 343 344 343 344 346 345 344 344 344 346 346 343 342 344 345 345 345 344 343 344 346 344 342 342 342 338 333 332 331 329 328 327 327 327 327
352 351 351 351 348 342 339 346 351 347 344 346 345 341 339 340 344 350 354 352 347 343 341 346 353 354 354 355 353 350 349 348 348 349 349 348 347 348 348 347 347 348 349 350 349 349 347 345 342 342 346 348 347 347 348 347 347 348 347 348 347 345 345 346 345 345 344 342 342 345 345 342 341 342 342 339 337 337 336 334 332 331 329 328 327
354 350 349 353 354 349 345 346 351 352 348 349 351 348 342 341 341 346 352 352 348 346 343 344 350 353 355 355 351 346 345 344 344 347 349 350 349 348 347 347 347 348 349 351 352 352 350 347 344 346 350 351 350 350 351 350 350 350 349 350 350 348 346 345 346 345 344 342 343 345 342 340 342 343 341 339 342 343 341 338 338 338 336 333 329
355 354 350 352 355 354 351 349 350 353 352 350 352 352 348 344 341 344 349 349 346 347 345 342 345 349 352 352 348 344 344 345 345 348 350 351 348 347 347 348 348 349 351 351 352 353 352 349 347 347 350 352 351 350 349 350 351 351 350 351 351 350 348 348 347 346 345 344 343 342 341 342 343 341 340 341 344 344 341 342 344 344 343 340 336
354 355 353 353 354 353 353 352 351 352 352 349 349 352 352 348 345 346 352 353 349 347 345 342 343 345 345 346 346 347 349 352 351 352 352 351 350 349 349 348 349 349 350 350 350 351 352 351 350 348 349 350 349 349 349 352 353 352 350 351 350 351 350 348 346 347 348 345 342 342 343 343 341 340 341 344 344 343 342 344 346 347 345 344 343
353 354 353 354 354 352 351 353 352 350 350 348 347 351 352 351 350 350 351 352 351 350 349 347 348 349 349 348 349 350 352 353 353 353 353 352 351 351 351 351 351 351 351 352 352 353 354 354 353 351 351 351 350 352 354 354 354 353 353 352 351 350 348 346 346 347 347 345 344 344 343 342 341 342 343 344 343 343 345 347 348 348 347 345 346
353 354 353 353 354 352 350 351 350 347 347 347 346 350 352 353 352 351 351 350 349 351 351 350 350 352 352 352 352 353 353 352 352 353 352 353 354 354 354 353 354 354 355 356 355 355 355 355 354 353 352 354 353 354 354 353 354 354 353 351 348 346 346 347 347 346 347 348 347 344 344 344 344 344 343 344 345 347 348 349 349 349 347 346 347
353 353 354 354 354 352 350 351 350 346 345 347 347 349 352 354 352 350 352 351 351 351 351 351 353 353 353 352 352 354 353 353 354 353 352 353 354 354 354 354 354 354 354 353 353 355 356 355 355 353 353 354 354 353 352 351 352 352 350 347 345 345 345 346 345 344 345 346 345 344 347 349 347 347 347 347 349 349 349 350 351 350 348 347 348
352 353 353 354 354 352 350 352 353 351 348 348 348 347 349 352 352 350 350 351 352 352 351 352 355 355 354 354 354 354 354 353 354 354 354 354 354 354 354 354 355 354 352 351 351 353 354 355 355 355 353 352 351 351 349 346 347 348 347 345 343 344 345 346 343 342 342 344 345 348 351 352 350 349 349 348 348 349 351 353 353 351 349 349 349
352 352 351 352 354 353 351 350 353 353 352 351 349 347 346 348 349 349 350 351 353 353 350 350 353 353 353 352 353 354 354 353 354 354 355 355 355 355 355 355 356 355 353 352 351 351 352 352 352 352 350 349 348 348 346 344 344 344 343 344 345 346 346 344 341 340 343 346 349 351 351 349 348 348 348 348 349 351 354 357 356 353 353 352 351
351 351 350 350 352 353 352 351 351 351 352 352 351 349 347 346 346 347 348 350 352 351 349 350 352 353 352 351 352 352 352 352 352 353 353 352 352 352 352 351 350 347 345 344 342 343 344 343 342 343 345 348 349 348 345 344 343 343 345 347 347 345 342 340 340 342 346 350 353 352 348 346 347 348 347 347 350 353 354 356 357 356 355 354 354
347 348 348 349 350 351 351 352 352 352 352 353 353 352 351 349 348 348 348 346 347 348 348 349 351 351 351 351 351 350 350 351 351 351 351 351 351 349 346 343 340 339 339 338 337 338 338 338 338 339 341 344 347 346 345 345 346 347 347 346 344 342 341 342 344 344 346 351 353 350 346 346 348 350 349 348 350 353 354 355 356 356 357 356 356
346 346 346 346 348 349 350 351 352 353 352 352 352 352 353 352 350 351 349 345 344 346 347 348 349 349 350 350 349 348 347 349 350 349 349 349 349 348 346 343 341 342 343 342 342 342 342 343 344 344 344 345 346 347 349 350 349 348 347 345 344 345 345 348 349 347 346 349 350 347 345 347 350 351 351 351 351 353 354 355 355 356 357 357 356
346 346 346 346 347 347 348 349 351 352 351 351 351 352 353 351 349 351 351 349 348 348 348 347 346 347 348 349 349 348 347 348 349 349 348 347 347 348 349 347 345 344 344 345 346 346 346 347 347 347 348 349 350 350 351 351 350 348 347 348 349 350 350 351 350 349 347 347 348 347 347 349 350 352 352 352 353 353 354 355 355 355 355 354 355
347 347 347 348 349 349 348 348 348 349 348 349 351 351 351 350 348 348 349 349 348 347 347 348 348 348 349 350 350 349 348 348 349 348 348 348 348 348 348 347 346 346 346 347 348 350 349 350 352 351 351 351 351 351 351 351 351 350 350 350 351 352 352 351 350 350 349 349 350 350 349 349 351 352 352 351 351 352 353 354 354 353 353 353 354
350 351 350 350 350 351 350 348 347 347 346 346 348 348 348 348 347 346 346 345 344 344 344 345 346 346 346 348 350 349 348 349 350 350 350 351 351 350 349 349 348 347 347 348 350 351 350 351 353 352 351 352 352 352 352 352 352 351 351 352 352 351 351 350 350 350 350 351 352 351 351 351 350 351 351 351 351 351 352 351 351 352 353 354 354
350 353 351 350 350 350 351 349 348 348 347 347 346 346 346 346 346 345 345 343 342 344 346 345 344 344 343 345 348 349 349 351 351 351 353 353 351 350 352 354 351 347 348 351 352 352 351 352 352 352 352 353 353 352 352 352 352 352 352 352 351 351 350 350 350 350 351 352 352 352 352 351 350 350 350 350 350 350 350 349 349 351 353 354 354
349 350 349 349 349 348 350 350 347 346 347 348 347 347 347 346 346 345 344 341 341 345 347 346 344 344 344 346 348 349 350 352 351 350 351 353 352 352 354 355 351 346 347 351 352 351 351 351 351 351 352 352 353 353 353 353 353 352 352 351 351 351 351 351 351 351 352 352 351 352 352 351 351 351 350 349 349 349 348 349 349 350 351 352 353
351 349 347 348 347 346 348 349 347 345 346 348 348 348 347 347 346 344 344 343 344 346 347 347 347 347 348 349 351 351 350 350 349 347 348 349 350 350 350 349 347 346 347 348 349 349 349 349 349 350 351 351 352 352 352 352 351 351 351 351 351 351 351 352 352 352 351 351 351 351 351 350 350 350 350 349 348 348 348 348 349 350 350 350 351
351 349 347 347 347 348 347 346 346 346 347 349 349 348 347 346 346 345 346 348 348 349 348 348 348 349 350 350 351 350 349 346 344 345 346 346 347 348 348 348 347 348 348 349 349 349 349 349 350 350 350 351 350 350 351 351 352 352 351 351 351 351 351 352 352 351 351 351 350 350 350 350 350 349 350 349 348 348 349 350 350 350 350 350 351
348 347 346 346 349 350 348 346 346 346 347 349 349 347 345 345 346 347 349 351 351 351 351 350 349 349 349 350 350 349 348 346 346 346 346 346 348 349 349 349 349 349 349 349 349 349 348 348 349 349 349 349 350 350 351 351 351 351 351 351 351 351 351 350 350 350 350 349 350 349 349 349 349 349 349 350 350 350 350 350 350 350 349 351 351
Wind_Speed
16 16 17 18 18 19 17 16 15 14 13 12 11 10 9 9 9 10 9 10 10 5 4 6 6 3 5 8 8 6 4 5 3 3 5 7 7 6 5 4 4 4 5 6 7 7 7 7 7 7 7 7 6 7 8 8 9 9 9 9 8 7 7 6 6 6 6 6 6 6 6 6 6 6 6 5 5 5 5 5 5 5 6 8 8
13 14 15 16 16 16 15 15 14 13 12 11 10 10 9 9 10 11 11 10 7 5 4 6 6 3 4 6 6 4 4 6 7 2 3 8 8 6 6 4 4 5 5 6 6 7 7 7 7 7 7 7 7 8 9 9 9 9 9 8 8 7 7 6 6 6 6 6 6 6 6 6 6 6 6 6 5 5 6 6 6 5 5 6 6
13 14 14 14 14 14 14 13 13 13 12 10 10 9 8 8 9 10 11 8 4 5 5 6 5 4 5 5 5 4 7 7 8 5 3 7 7 7 6 5 5 5 6 6 7 7 7 8 8 8 7 7 8 8 9 9 9 8 8 8 7 7 7 7 6 6 6 7 7 7 8 7 7 6 6 6 6 6 6 6 6 6 6 6 7
13 13 13 12 13 14 13 12 12 12 10 9 9 9 8 8 8 9 11 8 4 5 5 5 4 5 5 5 5 3 5 6 8 4 3 6 8 8 7 6 7 7 7 8 8 8 8 9 9 8 7 7 8 8 8 9 8 8 8 7 7 7 7 7 7 7 7 7 8 8 9 9 9 8 7 7 7 7 7 7 7 8 8 8 9
13 12 12 12 13 13 13 12 12 11 10 9 8 7 8 9 9 9 10 8 4 4 4 4 4 5 5 4 5 3 4 6 5 2 1 5 6 8 8 8 10 11 12 11 10 10 10 10 9 9 8 8 9 9 9 9 9 8 8 7 7 7 8 8 8 7 7 8 9 9 10 10 10 9 9 9 8 8 8 8 9 9 9 10 10
13 12 12 13 13 14 14 13 12 12 11 10 9 5 6 9 8 6 6 5 3 2 4 4 3 5 6 4 3 3 5 7 5 4 5 4 3 7 8 9 10 11 13 14 12 12 12 12 11 10 9 10 10 10 10 10 9 8 8 8 8 9 9 9 9 9 9 9 10 11 11 11 11 11 10 10 10 9 9 9 10 10 11 11 11
12 12 12 13 13 13 13 13 12 12 11 10 8 5 5 7 5 4 5 6 5 3 5 5 3 5 7 7 5 4 5 6 6 5 5 4 3 4 5 6 8 8 10 13 14 14 15 16 15 14 12 12 12 11 10 9 8 8 8 9 9 10 10 10 10 11 11 11 12 12 12 13 12 12 11 11 11 10 10 11 11 11 11 12 12
11 11 12 12 12 13 12 13 13 11 9 8 8 5 4 4 5 6 6 8 8 5 5 5 4 5 7 7 7 6 4 5 7 5 5 4 4 4 3 4 5 7 8 10 12 13 15 17 18 18 17 15 13 12 10 9 8 8 9 10 11 12 12 13 13 13 14 14 14 14 14 14 14 13 13 12 12 11 12 12 12 13 13 13 14
13 12 12 10 10 12 11 11 12 11 9 9 9 8 6 5 6 7 7 8 8 6 4 5 5 5 6 6 5 6 5 6 8 6 6 6 5 5 5 6 5 6 7 9 11 10 10 13 15 17 19 18 16 13 11 9 9 10 10 11 13 13 14 15 15 16 16 16 16 16 16 16 15 15 14 14 13 13 13 14 14 14 14 15 15
14 12 11 10 9 10 10 10 11 11 10 9 9 9 8 8 9 9 9 8 7 6 5 5 5 5 6 5 5 6 7 9 8 7 7 6 5 4 5 9 9 8 6 7 9 9 7 9 10 11 15 18 17 14 10 10 11 11 12 13 14 15 15 16 16 17 17 17 17 17 17 17 16 16 15 15 14 14 14 15 15 15 15 16 16
15 12 10 9 9 8 9 11 11 10 10 10 9 8 9 10 10 9 8 8 8 8 6 4 4 7 7 5 6 6 7 9 7 7 9 6 6 6 5 6 8 7 5 5 5 6 6 8 8 8 11 15 15 14 11 11 13 13 14 15 15 16 16 16 16 17 17 17 17 17 18 17 17 17 16 15 15 15 15 15 15 15 16 17 17
12 11 10 9 10 9 11 12 11 11 11 10 10 9 10 10 10 9 9 9 9 8 4 2 5 8 8 5 7 6 5 7 6 7 8 3 5 8 5 5 6 6 5 5 5 3 5 6 6 6 9 10 11 13 12 12 13 14 15 16 16 16 17 17 16 17 17 17 17 17 17 17 17 17 16 16 15 15 15 15 15 16 16 18 18
10 10 10 9 10 11 12 12 11 10 10 10 11 12 11 10 10 10 9 8 7 5 4 6 7 7 6 5 6 6 7 9 8 9 7 4 6 7 2 4 6 5 2 4 4 4 5 6 4 4 5 6 9 11 11 11 13 14 15 15 16 16 16 17 17 17 17 16 17 17 17 17 17 17 17 16 16 15 15 16 16 16 17 18 19
9 10 9 8 9 10 10 10 9 7 7 9 10 11 11 11 10 10 9 8 7 4 7 9 7 6 8 7 6 6 7 9 9 8 8 7 6 5 5 4 4 5 5 6 8 3 2 5 7 6 2 2 7 10 10 11 12 13 15 15 15 15 16 16 16 16 17 16 16 16 16 16 16 16 16 16 16 15 15 16 16 17 18 19 20
9 8 8 8 8 9 8 9 8 7 7 9 9 9 10 10 10 8 7 7 6 4 5 2 4 8 8 7 7 5 4 6 8 8 8 7 5 7 9 5 3 5 6 7 8 4 1 7 8 7 5 4 7 10 11 12 12 13 14 14 14 14 15 15 16 16 16 16 16 16 16 16 16 16 16 16 15 15 15 15 16 17 18 19 20
9 8 7 8 8 8 8 8 8 8 8 9 9 7 9 11 10 6 5 7 7 4 2 2 8 10 6 5 7 6 5 6 9 9 7 7 7 9 9 5 2 3 6 6 5 3 6 9 8 7 7 6 7 9 11 11 11 13 14 14 14 14 15 15 15 16 16 17 17 17 16 16 16 15 16 16 16 16 15 15 16 16 17 18 20
9 8 7 7 7 8 8 8 9 9 9 9 8 7 9 10 9 7 6 8 8 6 4 5 9 8 5 6 6 5 5 7 10 7 5 8 7 7 8 6 5 4 4 3 2 5 6 6 7 7 6 6 6 6 9 10 10 13 13 14 14 14 15 15 15 16 16 17 17 18 17 17 16 15 16 16 16 16 16 16 15 16 17 18 19
8 7 7 7 6 6 7 8 9 9 8 8 7 7 8 8 7 7 8 8 8 8 7 7 7 6 7 8 6 5 7 6 8 3 5 9 6 6 9 6 4 4 7 4 3 4 4 4 7 8 7 7 6 5 8 9 10 11 11 13 14 14 14 15 15 16 17 17 18 18 19 19 18 17 16 15 16 16 16 16 16 16 16 17 18
8 7 7 7 6 7 7 8 9 8 8 9 9 7 7 6 6 6 8 8 8 9 9 7 5 6 7 7 6 5 6 7 5 2 5 7 6 8 9 5 2 4 7 6 2 2 2 3 5 7 5 8 9 7 7 8 10 11 11 13 15 15 16 15 15 16 17 18 19 19 19 20 20 19 17 16 15 16 16 16 16 17 17 17 18
8 6 7 7 6 7 8 8 9 9 9 9 7 6 5 6 6 6 9 10 9 9 10 8 4 5 9 10 7 4 5 6 6 4 3 4 5 6 7 5 4 5 7 6 3 1 3 1 2 6 5 7 9 8 8 8 9 11 11 12 14 16 18 18 17 16 17 18 19 20 20 20 21 20 19 17 15 15 16 16 17 17 18 18 19
8 7 7 8 6 7 8 8 8 8 8 6 5 5 5 6 6 7 9 9 9 9 9 10 7 5 8 11 10 7 6 5 5 5 2 2 4 5 6 6 5 6 5 3 4 2 2 3 2 6 4 6 8 8 10 9 8 10 11 12 14 16 19 19 18 16 17 19 20 21 22 21 21 21 20 18 16 16 16 17 17 18 19 19 20
9 8 7 7 7 6 7 7 7 8 7 6 6 5 5 5 6 6 7 7 9 8 7 8 9 7 7 9 10 9 7 4 4 4 2 1 3 5 6 3 1 4 1 0 4 2 3 4 2 2 2 6 8 9 12 12 11 12 12 13 14 15 18 20 19 17 18 19 20 23 24 22 21 20 19 18 17 16 16 17 17 18 19 20 20
10 9 8 8 7 6 6 6 6 7 6 6 6 6 4 4 5 6 6 6 7 6 6 6 6 6 7 7 7 6 5 4 4 5 2 1 1 3 5 1 1 4 0 3 5 2 4 4 3 3 4 8 11 12 13 13 13 14 14 15 15 15 19 20 19 19 19 19 22 25 24 22 20 19 18 18 17 17 17 17 18 18 19 20 20
9 9 9 9 8 7 7 7 7 6 6 6 7 7 6 5 5 5 5 5 5 5 5 5 3 3 4 3 3 3 3 3 3 3 1 1 3 3 4 2 2 3 3 3 6 3 4 7 8 9 10 12 13 13 13 14 14 15 16 16 15 16 19 20 20 20 20 21 24 24 22 21 21 19 18 18 18 18 18 18 18 19 19 20 20
9 9 9 9 8 8 8 8 7 7 7 7 7 8 8 6 5 5 4 4 4 4 4 4 4 3 2 3 4 3 1 1 2 2 1 2 3 1 2 3 4 4 3 5 7 7 5 5 7 9 12 14 14 15 15 16 15 15 15 16 17 18 20 20 20 21 21 22 23 22 21 22 21 20 19 18 19 18 18 19 19 19 19 19 19
10 9 9 8 7 8 8 8 8 7 7 7 8 9 9 7 5 6 4 3 4 5 4 3 2 1 1 2 4 2 1 2 2 1 1 2 2 3 4 4 5 6 6 6 7 7 6 5 7 10 13 14 15 17 17 15 15 16 15 16 18 20 21 22 20 21 21 21 20 20 21 23 23 22 21 20 20 19 19 19 19 19 18 19 19
11 10 11 11 9 8 8 8 8 7 7 7 7 8 8 7 6 6 5 3 3 4 5 4 2 1 1 0 2 2 1 1 1 1 0 2 1 2 4 3 4 6 6 6 6 6 7 7 9 12 13 12 14 16 16 15 14 15 15 16 18 19 22 23 21 19 18 17 17 19 22 23 24 25 23 21 20 20 20 19 19 19 19 19 20
12 12 13 14 12 9 8 8 7 7 7 7 7 7 7 8 6 6 6 4 2 2 3 4 3 1 0 2 2 2 0 4 3 1 3 4 3 1 2 2 4 6 6 6 7 8 7 7 11 13 11 11 13 16 17 17 15 15 16 17 16 19 23 23 19 16 15 14 16 19 21 23 26 26 24 22 21 21 20 20 20 20 20 20 20
11 11 12 13 13 10 8 8 7 7 7 7 7 7 7 7 6 6 6 4 3 3 2 2 1 1 1 2 3 2 1 3 2 1 5 6 4 4 2 2 6 6 5 7 8 9 9 8 9 11 12 12 14 16 16 15 16 17 18 17 16 20 24 21 16 14 14 15 17 20 21 22 25 26 24 23 22 21 21 21 21 21 21 21 21
9 10 11 11 12 10 10 10 9 7 7 7 8 8 7 7 6 5 6 6 5 4 4 3 2 2 2 3 4 3 2 2 3 2 4 6 5 3 2 3 8 6 5 9 10 9 10 10 10 10 13 14 13 15 14 13 16 19 18 18 19 22 22 17 16 17 16 16 19 21 20 21 24 26 25 25 24 22 22 23 22 22 22 22 21
12 12 11 10 11 11 11 12 10 8 8 7 7 8 7 7 6 5 4 5 5 4 4 3 2 4 4 5 7 6 6 6 5 4 4 6 5 3 4 6 8 8 8 11 12 10 10 11 11 11 13 14 13 14 15 14 16 17 17 19 22 22 18 16 18 19 18 18 21 21 19 20 24 25 26 28 25 23 24 25 24 23 23 23 22
13 13 11 9 10 10 11 12 10 8 8 8 7 7 7 8 7 6 5 7 6 5 5 4 4 5 6 7 8 7 6 7 7 5 5 7 6 6 6 6 7 9 9 9 11 12 12 12 12 11 11 13 13 14 15 15 15 16 16 18 19 17 16 18 20 19 18 20 20 19 19 22 24 24 26 29 27 25 27 28 25 24 23 23 22
12 12 11 11 10 10 9 10 9 8 8 8 8 8 7 8 8 8 8 8 7 6 6 6 7 7 7 9 9 7 7 7 6 6 5 5 7 9 9 8 7 8 8 8 11 13 15 14 13 11 10 12 13 13 13 15 15 15 15 16 17 16 17 18 18 17 17 19 19 18 20 23 23 24 27 29 28 27 30 30 27 26 25 24 23
11 11 11 11 11 11 10 10 11 11 11 10 10 9 8 8 9 8 8 8 7 7 7 8 7 7 8 10 9 8 7 7 7 5 4 5 7 9 9 8 8 8 7 8 11 13 16 16 14 12 11 11 13 13 14 14 15 15 14 15 16 16 16 17 16 15 16 19 19 19 21 23 23 25 27 27 26 27 31 30 28 28 28 25 23
12 12 12 11 11 12 12 12 12 13 12 10 10 10 8 8 8 8 8 9 8 7 8 8 7 8 8 9 8 7 6 6 7 7 6 7 7 7 9 9 10 10 9 10 11 13 16 17 15 14 13 13 14 14 13 12 13 14 14 15 16 15 16 17 16 15 16 19 19 20 22 24 24 24 24 23 24 28 31 30 28 28 28 26 24
13 13 12 12 13 12 12 13 13 12 12 10 10 11 10 9 9 8 9 10 9 8 7 8 7 8 8 8 8 7 6 7 9 10 9 8 7 8 9 9 10 10 9 10 12 13 14 16 16 16 16 16 15 14 14 13 13 14 14 15 16 15 16 18 18 17 17 17 18 20 22 23 22 21 22 24 26 29 30 29 28 27 26 24 24
15 13 11 12 15 13 12 12 13 12 12 11 11 11 10 9 9 8 9 9 9 9 9 9 8 8 9 9 8 8 8 8 8 9 8 7 8 9 9 7 8 10 9 9 11 12 13 15 16 16 15 16 15 14 15 16 15 15 16 16 16 16 17 18 19 20 19 17 18 21 21 20 20 20 22 25 27 29 29 29 26 24 23 24 25
17 16 13 13 14 13 11 12 12 11 11 11 10 10 10 10 9 8 9 8 8 9 9 8 9 10 10 9 9 9 8 8 8 8 8 9 10 10 8 8 9 10 10 10 11 11 12 14 15 15 14 15 15 15 15 15 15 16 17 18 18 18 17 17 20 22 21 20 22 24 22 20 21 23 26 29 31 30 29 25 22 21 21 22 24
17 16 14 14 13 12 12 12 12 11 10 10 10 10 10 10 10 10 10 9 9 10 9 8 9 10 10 10 10 10 10 9 9 9 9 10 10 9 8 9 9 9 10 10 11 11 12 13 14 15 14 14 14 15 15 16 16 16 18 21 21 18 15 17 21 24 24 24 26 25 22 21 24 28 31 32 31 28 25 23 21 21 20 21 22
16 16 15 15 14 14 12 12 13 12 11 11 10 10 10 11 11 11 11 10 11 11 10 8 8 9 10 11 10 10 11 11 9 9 9 9 9 9 8 8 9 10 11 12 12 12 13 14 14 15 15 15 15 16 17 17 17 18 19 19 18 16 16 20 24 26 27 27 26 25 25 27 31 32 31 29 26 25 24 23 22 22 22 23 23
15 15 14 13 14 15 13 12 12 12 12 12 12 10 11 11 11 11 11 12 12 12 12 11 9 8 9 10 9 10 11 10 11 12 11 10 11 12 12 12 13 14 14 14 14 14 14 15 16 16 17 17 16 16 16 16 17 18 18 16 16 19 22 25 25 25 26 26 25 27 31 34 33 30 27 24 24 24 24 23 22 23 23 24 23
14 14 14 13 13 13 13 13 13 13 13 14 13 11 11 11 10 10 11 11 12 12 12 11 11 9 9 9 10 11 11 11 13 13 12 12 14 16 16 15 15 15 15 15 15 15 15 16 16 16 17 16 16 16 17 16 16 17 18 20 21 24 25 26 27 27 27 26 28 33 36 34 30 26 25 24 25 25 25 25 24 22 21 23 24
14 15 15 14 13 13 13 13 14 14 15 16 14 12 12 12 11 11 11 10 10 11 10 10 10 10 9 9 10 12 11 12 14 13 12 13 15 15 14 13 13 13 13 14 14 14 15 16 16 16 17 17 17 17 17 17 18 19 21 22 23 24 25 27 30 31 31 32 34 37 36 31 26 26 25 25 27 27 26 26 26 23 22 23 25
17 17 16 15 15 14 13 12 14 15 16 16 14 13 13 14 13 13 12 10 9 10 9 9 9 10 10 11 11 11 9 9 10 11 12 13 13 13 12 12 12 13 13 14 15 16 16 17 18 18 17 18 18 19 19 20 21 22 22 22 23 24 26 29 32 35 36 36 35 35 34 29 26 25 25 24 25 26 24 23 24 24 23 23 23
19 19 18 17 16 15 13 12 15 16 15 14 15 15 15 16 14 14 14 12 11 12 10 9 10 11 11 11 13 13 12 10 10 11 12 13 13 14 14 13 13 12 12 13 15 16 17 18 19 19 18 18 19 19 20 20 21 22 23 24 25 26 29 31 34 35 35 33 31 31 32 30 26 26 26 25 24 22 20 20 22 23 23 22 21
19 18 19 18 16 16 15 14 16 17 16 16 17 17 17 17 16 16 15 14 14 12 10 11 12 14 14 13 13 15 15 13 11 11 12 13 14 14 14 13 14 13 13 14 15 16 16 16 17 18 17 16 18 20 20 20 21 23 26 28 29 30 32 32 32 32 29 26 25 26 29 29 27 27 27 27 25 22 20 21 22 23 22 21 20
21 18 18 17 16 16 16 15 16 18 17 17 18 18 18 17 17 17 16 15 14 11 10 13 16 17 17 17 17 17 16 14 13 13 13 14 15 15 14 14 16 16 13 12 13 15 15 15 16 17 16 16 18 20 21 21 23 25 27 28 29 30 30 30 30 29 25 21 21 24 26 26 26 27 27 27 27 26 25 25 24 22 20 20 20
23 21 20 18 17 16 16 17 17 18 19 19 19 19 19 18 18 17 16 15 13 11 12 16 17 18 18 18 19 18 16 15 15 15 16 16 15 16 17 17 19 19 15 13 15 17 18 18 18 18 18 18 20 21 22 23 25 27 27 27 27 28 28 28 27 25 22 21 22 23 24 25 25 28 30 29 29 29 28 26 24 22 20 20 20
22 22 22 21 20 19 19 19 19 19 20 21 21 21 20 20 18 17 16 15 13 14 16 18 18 18 18 17 17 16 15 15 16 17 17 17 17 18 19 20 21 20 19 19 20 21 21 21 22 22 22 21 21 23 24 25 26 26 25 26 26 26 26 25 24 23 23 23 23 22 25 27 28 30 33 32 31 30 29 26 24 23 22 21 19
21 20 21 22 23 23 22 22 22 22 21 21 21 20 20 20 18 17 16 15 14 15 16 16 16 17 16 16 16 16 17 18 18 19 19 20 20 20 21 21 21 21 21 22 23 22 22 22 22 22 22 22 22 22 23 22 22 21 21 23 23 23 23 23 22 22 23 23 22 23 26 29 30 31 32 34 33 30 27 27 26 25 24 22 20
22 19 18 21 25 25 24 25 25 25 24 22 21 20 19 18 17 16 16 16 16 16 17 16 16 15 15 16 18 19 20 20 21 21 21 21 20 20 20 20 20 20 20 21 22 22 22 22 21 20 20 19 19 18 18 17 17 18 19 19 20 20 20 21 20 21 23 23 22 24 27 28 29 28 28 31 32 30 27 26 27 27 25 21 21
Wind_Direction
124 127 127 125 124 122 122 121 120 120 121 121 122 124 123 120 114 111 107 97 93 100 107 113 132 130 105 117 124 123 132 133 107 357 31 46 39 46 56 57 69 83 88 94 94 91 88 84 80 75 69 69 71 75 76 76 74 72 68 64 60 54 50 44 37 30 24 21 20 17 9 1 354 349 343 337 336 333 331 334 334 331 314 304 303
129 129 130 127 123 123 127 126 121 117 115 118 120 119 118 115 108 105 100 89 99 146 142 132 141 127 101 105 111 86 56 99 119 159 356 30 41 39 48 62 63 83 89 88 89 85 82 76 71 66 64 69 71 73 74 73 70 67 64 58 55 50 46 43 38 34 31 29 30 32 29 22 12 2 358 356 355 347 339 335 330 323 310 306 312
133 129 132 135 132 127 130 129 121 119 120 121 121 119 113 112 115 111 101 94 132 159 130 134 132 119 127 116 117 64 39 79 102 113 334 4 44 48 43 65 65 73 77 76 79 73 69 64 60 60 61 65 67 67 64 62 60 55 54 51 48 48 47 46 44 42 39 36 37 39 41 39 31 22 18 16 14 6 354 347 343 346 349 348 344
135 131 129 135 138 128 125 127 122 123 129 128 124 124 121 117 122 115 104 106 144 145 130 146 137 123 132 118 127 93 38 80 99 120 289 350 56 62 42 54 63 65 61 58 60 57 58 55 54 53 54 58 56 55 52 49 49 48 48 48 48 49 51 52 51 48 44 42 42 43 44 44 42 38 35 29 23 18 9 1 358 359 1 1 358
138 137 130 133 141 136 131 132 133 135 138 130 120 125 128 112 100 94 95 104 128 130 126 148 152 136 130 119 129 120 79 103 116 149 1 22 51 50 48 62 62 58 50 44 46 47 50 47 46 44 42 45 45 43 43 43 45 47 49 50 53 54 55 56 55 54 49 46 45 44 45 45 46 44 40 36 29 24 17 10 7 6 6 4 1
139 139 135 136 141 142 133 130 143 146 132 112 97 98 114 100 87 84 97 120 149 144 126 129 141 132 127 134 138 120 117 123 124 112 94 85 35 24 47 64 58 50 43 40 40 42 44 41 37 36 36 37 37 38 38 39 42 45 50 53 56 57 57 58 57 57 53 49 46 44 43 43 44 42 40 37 34 29 23 17 12 10 8 5 2
135 131 132 136 137 137 126 124 141 136 118 105 93 88 98 95 111 154 157 156 162 149 133 134 147 140 133 140 144 131 130 139 132 123 137 137 84 44 35 34 35 42 48 43 42 45 43 37 34 31 31 32 31 31 31 35 41 46 52 55 58 59 59 59 58 57 54 50 46 44 43 43 42 42 40 38 35 30 25 21 18 15 11 9 8
135 130 136 141 132 127 121 127 139 132 122 121 114 117 120 116 156 166 156 153 149 131 120 131 145 146 139 133 126 127 123 127 126 114 125 125 126 137 97 43 28 44 62 48 43 48 39 30 31 32 31 29 28 28 31 36 44 52 58 61 62 62 60 60 58 55 53 50 46 44 42 43 43 43 41 39 36 31 28 26 24 23 19 16 13
132 125 131 134 120 118 122 132 139 135 133 128 125 134 130 127 152 149 140 144 142 133 131 138 141 140 139 130 124 140 131 117 136 142 114 86 105 127 90 82 75 69 67 44 38 38 31 27 29 32 31 28 25 25 32 42 53 61 63 66 64 61 59 57 55 53 51 48 45 43 41 42 42 41 40 38 36 33 31 29 28 26 24 20 16
130 121 122 125 124 124 129 137 139 133 130 126 125 125 115 118 133 133 134 137 123 114 129 138 146 147 141 125 111 144 153 135 140 142 116 103 123 116 62 63 68 79 69 39 32 19 29 46 40 39 31 24 22 25 39 53 61 66 65 64 60 56 53 51 49 48 46 44 41 40 39 39 40 38 37 36 34 33 30 27 25 23 22 19 15
139 133 126 130 133 128 125 133 138 131 126 128 124 113 113 121 128 125 124 124 106 96 105 113 128 132 137 143 127 133 145 129 116 116 118 129 144 118 83 60 61 81 78 75 67 27 51 59 43 58 43 24 23 30 45 58 58 60 58 55 52 48 45 42 41 39 38 37 35 35 34 34 35 34 34 32 31 29 26 23 21 20 19 15 12
145 140 132 133 132 129 130 133 136 131 126 131 134 127 124 123 120 114 112 111 98 88 89 101 111 112 115 136 144 146 139 112 109 139 136 112 124 123 101 66 79 90 63 88 107 57 87 77 32 59 59 43 42 40 47 55 53 54 52 48 45 41 38 35 33 31 30 29 29 28 27 26 27 27 27 27 25 22 21 19 17 17 16 13 11
142 140 135 133 128 131 137 137 136 133 128 131 134 130 125 119 109 104 104 90 68 64 107 135 124 114 119 120 127 142 145 134 138 150 141 104 130 148 140 66 97 126 90 102 119 39 58 88 58 47 55 64 63 51 49 55 55 54 52 48 43 38 34 30 26 24 22 22 23 23 22 21 20 19 19 19 18 16 14 13 12 12 12 10 9
138 141 140 130 127 134 141 143 141 137 134 129 127 127 121 112 103 102 101 74 45 77 132 138 138 143 147 136 122 125 137 152 163 158 144 133 134 146 150 119 96 126 120 105 120 114 32 85 78 56 48 67 61 49 40 48 52 53 53 49 44 38 34 30 24 20 17 17 19 19 18 17 16 14 12 11 10 9 8 7 6 6 7 6 6
134 137 140 129 128 135 135 136 136 132 131 127 124 123 117 108 100 97 101 87 72 115 132 111 130 146 156 155 153 155 158 171 175 164 153 150 139 131 138 137 66 81 101 113 131 153 106 88 79 71 86 70 59 56 44 44 43 44 47 44 42 39 36 32 25 19 15 14 14 15 15 13 13 12 9 8 5 4 3 2 1 0 1 1 1
133 134 140 136 133 136 133 130 129 127 127 123 119 113 111 111 105 96 106 102 88 91 65 67 128 146 167 160 148 143 134 143 151 149 152 154 142 142 144 143 143 90 91 122 138 110 89 92 70 60 81 63 55 59 50 52 49 42 40 35 36 37 36 32 26 20 14 11 10 9 10 9 8 8 7 6 3 1 359 358 359 357 358 358 358
136 142 145 141 140 137 134 130 125 126 126 120 114 106 106 110 107 111 119 100 82 80 79 99 127 140 127 110 116 124 109 130 149 142 140 145 132 152 162 138 146 159 131 145 115 71 75 76 46 37 60 53 51 49 33 36 35 33 33 26 23 23 26 26 21 17 12 8 5 3 3 3 2 3 3 4 2 1 358 358 358 357 357 357 356
144 157 150 140 141 136 130 129 126 129 132 126 122 112 109 115 117 128 129 106 93 102 99 97 110 109 91 80 87 94 61 95 153 122 99 136 134 154 165 141 109 144 157 149 60 61 54 30 24 29 42 29 21 22 18 15 8 9 15 13 8 3 6 11 10 9 7 3 0 357 356 356 356 357 357 358 0 1 359 358 0 359 358 357 357
157 170 154 139 140 136 132 134 132 133 137 135 132 124 118 125 124 134 142 127 112 116 112 108 117 115 105 91 94 103 70 84 129 73 77 125 138 143 157 163 102 111 142 138 86 54 19 348 4 18 26 12 7 2 1 6 359 351 353 357 356 350 347 352 357 359 359 358 354 351 350 349 349 351 351 351 353 357 357 358 0 0 359 359 358
166 175 156 150 150 140 140 139 131 130 136 136 136 138 131 125 126 142 154 139 113 112 116 110 117 131 124 116 111 116 113 109 112 103 87 94 114 127 141 155 130 125 140 146 178 348 12 238 308 4 8 0 2 357 348 355 352 340 339 345 347 344 338 338 344 349 351 350 349 346 344 344 344 344 346 345 345 348 351 353 355 356 356 356 356
172 176 161 161 166 150 147 145 134 133 139 140 148 160 147 134 139 148 154 141 113 112 122 115 114 132 130 124 119 111 111 114 110 109 100 78 66 69 110 130 113 124 129 119 181 249 342 194 263 335 337 341 345 346 338 333 334 327 325 334 338 338 333 331 334 339 344 344 343 343 340 340 340 339 341 342 341 341 341 344 346 348 349 349 351
178 185 169 164 172 158 151 154 145 142 146 151 155 159 151 149 156 149 148 146 133 133 135 120 116 120 118 115 113 111 109 107 111 111 104 94 34 53 103 123 84 137 142 301 173 229 299 157 116 312 291 332 327 325 326 324 330 325 321 329 333 334 331 327 324 329 337 337 337 339 338 338 338 336 337 338 340 339 337 338 339 341 342 342 345
175 184 176 169 174 160 156 165 157 151 158 161 152 148 157 164 162 154 154 157 154 157 141 118 117 112 101 94 94 105 111 97 109 127 137 162 106 111 130 136 257 145 125 268 203 235 281 213 187 235 278 321 312 309 317 323 327 321 319 326 328 330 329 323 321 329 336 336 335 337 338 339 338 336 337 337 339 339 336 337 337 338 339 339 340
173 180 175 172 173 166 165 166 161 163 170 169 158 157 174 181 168 161 164 168 172 170 138 120 130 113 93 87 90 104 107 85 105 131 145 142 130 152 167 175 207 156 133 241 235 243 276 265 255 262 285 305 308 314 320 323 326 322 325 331 330 329 327 323 325 333 338 337 336 337 340 343 341 337 338 338 339 339 337 338 338 337 338 337 338
178 178 173 174 177 175 175 168 169 176 170 171 171 169 178 182 170 159 158 171 179 176 152 130 135 125 104 129 121 100 51 92 122 132 110 134 140 184 228 210 232 234 211 247 256 243 260 273 252 270 293 301 310 322 323 322 327 331 335 339 336 333 329 326 326 330 335 336 335 337 343 348 346 342 340 339 339 339 339 340 340 339 339 338 339
177 171 170 185 193 184 182 181 184 186 177 178 181 176 179 181 171 163 162 176 180 177 168 129 104 105 89 139 127 91 1 146 144 133 124 163 181 232 258 234 229 245 263 285 280 259 270 273 250 274 293 296 306 319 325 327 334 339 338 337 336 331 327 326 325 327 333 336 334 337 345 350 350 347 344 341 340 340 341 342 342 342 342 342 341
178 172 172 185 196 194 192 191 191 190 188 187 186 183 183 182 178 173 175 185 179 177 173 145 139 215 8 187 160 93 34 188 154 45 219 180 148 272 277 262 243 249 263 282 289 280 288 285 267 275 289 300 312 322 335 347 346 338 333 333 333 325 321 326 329 330 335 335 332 337 343 347 349 348 345 343 342 342 343 344 345 345 346 346 344
185 183 182 184 191 199 197 194 196 195 196 194 189 190 188 186 190 179 172 190 195 191 184 155 155 193 13 291 244 111 200 239 209 188 258 222 164 195 270 292 280 269 265 271 272 263 270 289 284 284 295 310 323 330 341 350 341 327 326 329 325 313 315 327 336 338 338 333 331 336 339 342 345 345 345 344 343 343 345 345 347 348 348 348 347
189 188 193 190 193 199 188 191 208 199 193 199 195 198 195 187 197 186 169 193 217 209 210 178 159 212 191 266 305 353 318 281 255 232 276 271 230 205 196 279 282 284 282 275 266 253 255 272 287 305 316 317 327 333 337 337 320 311 317 319 311 306 313 329 345 348 344 336 334 335 335 337 341 344 347 347 344 344 347 347 348 348 348 348 349
184 189 203 198 197 200 181 186 212 205 193 200 197 203 203 189 201 207 189 199 212 210 220 215 219 257 223 227 260 264 244 312 324 282 292 306 296 250 203 257 275 278 271 270 275 272 269 272 274 293 305 306 317 323 320 314 303 304 314 314 306 306 314 332 349 350 346 340 335 331 330 334 338 341 346 347 345 344 345 345 345 345 345 345 346
183 191 209 204 198 203 188 187 207 206 194 200 204 206 206 199 203 213 227 235 233 230 228 222 243 260 255 248 244 231 221 227 230 224 245 266 278 270 242 250 269 271 269 276 282 283 285 290 286 285 292 296 303 305 301 301 302 306 313 309 306 311 324 340 344 342 338 333 330 327 328 335 336 337 342 344 343 344 344 343 341 340 341 341 342
194 196 205 201 200 207 198 193 203 210 202 200 212 215 205 207 206 198 228 251 252 247 234 223 237 244 250 262 258 246 248 246 232 227 243 258 276 288 272 263 266 268 274 284 288 292 299 303 303 302 303 301 303 306 307 308 307 306 307 305 308 319 336 342 336 330 325 325 328 327 329 334 333 333 338 340 341 343 345 343 340 339 339 338 339
203 206 204 195 198 205 203 195 193 214 222 201 209 225 213 213 217 208 219 238 246 250 245 234 230 232 245 261 265 264 268 271 261 250 250 267 283 289 290 294 292 288 290 287 285 292 299 305 310 312 309 307 311 312 307 305 305 307 311 315 318 326 336 335 324 318 322 329 330 328 331 334 331 331 336 337 336 338 341 342 340 340 340 339 339
199 207 208 199 199 198 198 198 192 208 225 210 207 223 222 222 227 222 229 245 249 243 247 250 240 234 242 253 264 274 275 283 293 288 268 261 267 275 282 285 286 286 286 286 286 288 294 302 309 311 310 308 305 301 300 303 308 315 322 322 320 322 323 315 309 317 328 328 325 328 335 336 331 330 333 333 332 333 335 337 338 338 339 339 340
199 207 206 200 209 205 196 201 201 207 220 218 212 217 222 230 230 224 227 239 250 250 249 254 252 250 252 256 265 272 269 277 289 287 264 250 253 261 263 260 259 260 262 273 282 287 293 300 308 314 316 311 306 308 314 313 309 313 316 312 309 311 313 313 320 331 327 322 328 336 335 329 326 328 333 334 331 329 330 333 335 334 334 336 339
200 210 204 194 211 216 202 203 210 213 218 221 220 217 219 231 235 232 229 230 242 255 255 252 254 258 261 263 267 267 256 249 256 263 263 259 258 259 263 268 273 274 273 274 279 284 291 300 308 315 317 318 323 329 328 320 313 312 310 307 309 316 325 332 336 336 330 330 337 335 326 324 328 333 335 331 326 324 325 328 328 328 329 330 331
199 203 202 199 211 218 211 210 216 220 222 224 225 220 220 228 233 237 239 239 247 254 256 257 256 255 257 260 264 263 256 248 251 264 273 273 270 266 266 268 274 279 279 279 284 289 295 301 307 313 320 327 330 328 324 321 318 316 317 322 328 333 338 338 334 332 335 336 330 325 326 332 335 332 327 322 322 323 323 322 323 325 328 329 326
203 198 198 208 218 220 216 216 220 221 221 225 227 223 224 228 229 234 238 239 246 252 255 259 262 264 267 268 269 269 268 263 261 264 265 263 268 272 272 271 272 276 279 282 288 292 296 303 308 314 322 327 321 317 321 324 320 319 327 334 337 339 338 331 325 327 331 329 326 330 336 335 328 323 321 324 326 325 325 326 327 328 329 330 327
211 204 196 203 221 229 221 217 223 225 221 224 229 226 225 228 229 233 239 240 241 247 251 251 254 263 269 269 270 276 281 277 268 266 267 269 277 285 283 282 286 288 289 292 295 295 296 301 307 310 314 316 316 319 326 331 329 327 329 327 326 330 327 317 317 322 325 328 331 335 335 326 321 321 325 328 330 330 333 336 334 333 333 331 328
212 212 205 200 213 229 228 217 219 225 225 225 230 229 225 228 231 234 239 243 245 249 254 252 249 256 265 268 269 273 277 277 268 265 264 262 272 281 280 279 282 285 289 292 295 298 299 302 306 310 313 317 324 328 328 329 329 329 329 325 322 320 313 309 314 320 325 330 334 334 330 325 324 326 329 332 334 338 340 338 336 337 333 328 326
211 217 221 213 212 221 226 224 224 229 230 228 231 234 229 231 237 238 237 240 247 251 254 253 250 253 262 268 269 265 269 272 267 266 269 270 277 285 284 279 279 284 291 296 298 302 303 304 307 309 311 315 319 320 317 318 322 325 324 320 312 308 308 309 313 320 326 330 331 328 327 327 327 329 333 336 340 344 342 338 337 333 327 326 327
214 218 227 228 224 223 227 229 226 227 232 230 230 232 232 236 241 241 240 244 248 252 254 254 254 257 262 270 276 274 273 273 269 268 274 280 284 287 286 284 284 288 295 300 304 309 309 308 310 309 307 306 307 308 309 314 317 313 309 306 305 307 310 312 314 321 326 327 325 324 325 328 330 331 334 335 339 342 340 337 337 333 328 328 327
215 215 218 223 225 227 233 233 224 226 234 235 233 233 235 241 243 240 247 256 255 255 260 261 261 266 268 271 281 287 286 282 279 279 283 283 284 286 287 286 288 292 297 302 307 311 311 311 311 311 309 308 310 312 314 314 310 305 304 306 308 312 315 316 316 319 323 324 322 321 323 327 332 333 333 334 336 337 335 334 336 336 331 327 326
216 215 214 217 216 217 226 231 228 234 239 235 233 236 240 245 244 240 247 258 260 263 270 277 287 296 291 285 287 288 283 278 276 276 278 280 282 284 283 282 286 292 296 299 303 306 308 309 310 312 314 314 315 316 314 310 307 306 308 308 310 312 313 314 313 315 319 322 322 320 320 324 330 329 329 332 333 332 332 332 332 332 331 329 330
218 220 219 220 220 218 219 228 236 240 240 235 234 238 243 248 248 245 248 255 260 265 270 279 291 295 288 282 280 272 264 263 266 264 266 273 278 278 279 281 284 289 291 296 305 311 312 310 308 309 311 312 311 310 307 305 305 308 308 307 308 309 309 310 311 313 317 322 323 321 319 320 323 321 319 321 324 325 328 326 325 329 333 333 332
219 223 221 216 219 220 218 227 238 239 236 234 236 239 241 246 249 250 254 259 264 271 274 270 271 273 271 269 267 266 266 268 268 265 266 271 274 273 274 280 287 291 297 305 310 309 306 303 298 299 302 302 300 299 298 298 301 303 304 304 305 307 308 308 309 312 318 321 322 319 316 317 320 316 313 316 318 320 321 320 325 333 334 330 329
220 225 226 218 214 216 216 222 231 235 234 233 234 236 239 244 248 251 257 261 262 267 270 263 260 262 266 268 266 265 267 270 269 269 271 274 276 273 270 275 283 289 296 304 301 295 294 294 292 294 294 290 286 287 289 291 294 296 298 301 304 306 307 307 309 313 317 317 319 320 318 317 317 314 314 317 318 316 316 319 326 332 330 324 324
219 221 230 230 224 222 224 227 230 234 237 239 240 239 239 242 246 250 256 258 251 244 247 251 253 256 261 266 268 264 262 267 271 273 274 277 277 274 272 275 281 286 287 283 276 274 276 277 280 285 287 284 282 283 286 289 292 295 298 302 304 306 307 310 314 318 318 318 323 326 319 315 316 315 316 319 319 317 318 322 327 329 327 323 321
218 216 224 232 233 229 229 233 236 237 238 240 242 242 240 241 244 247 250 247 239 236 241 245 249 255 260 265 268 267 266 270 274 274 273 274 276 275 277 280 283 287 288 284 279 277 277 275 276 279 283 284 285 286 289 292 295 300 305 308 310 310 312 316 321 323 322 323 327 326 317 315 317 318 318 317 317 319 322 327 330 331 330 328 325
225 219 218 228 234 230 227 233 239 240 240 239 239 241 241 240 241 242 242 240 236 239 245 249 250 254 259 262 264 268 273 276 277 276 274 275 278 280 282 284 286 288 289 288 288 288 286 284 283 284 287 290 291 292 294 297 302 307 312 313 313 314 316 321 324 324 324 327 329 325 318 317 321 324 323 320 318 319 324 328 329 330 331 332 329
232 226 217 223 231 231 230 233 235 237 238 236 236 240 243 240 237 238 239 240 241 243 249 253 255 259 263 264 265 268 271 272 272 272 274 278 282 284 285 286 288 290 290 291 293 295 294 294 294 295 295 295 295 298 301 304 307 310 312 314 318 321 325 328 329 327 325 325 328 327 325 325 328 331 332 328 323 322 325 327 327 330 335 335 330